Torna al catalogo

BREEZE-M DEB

AttivoHEO
NORAD 32047·DEBRIS·🇷🇺 Russia

Lanciato Feb 28, 2006 da Baikonur Cosmodrome

Loading…

Prossimi Passaggi (prossime 24 ore)

TLE

AggiornatoSource: Space-Track

Epoca: Sep 11, 2026, 13:54 UTC

1 32047U 06006AA  26254.57958681  .00006293  00000-0  58712-2 0  9991
2 32047  51.4497  96.4079 4323456   7.7707 357.2412  6.54385153409959

Traccia BREEZE-M DEB in tempo reale con AllMySat

Download on the App Store